星链-4037 (STARLINK-4037 )

导读 | 星芒AI

STARLINK-4037 是 SpaceX Starlink 卫星互联网项目中的第 4037 颗卫星,属于低轨卫星群,旨在为全球用户提供高速互联网服务。该卫星于 2023 年发射,运行在约 550 公里的轨道高度,采用先进的通信技术和星间链路,提升网络覆盖与传输效率。Starlink 项目致力于改善偏远地区的网络接入,支持多种应用场景,包括应急通信和远程教育。

基本信息
目录编号:
52663
目录名称:
STARLINK-4037
国际标识:
2022-053H
轨道中心:
EARTH
卫星名称:
星链-4037
卫星全名:
星链-4037 (STARLINK-4037 )
卫星状态:
在轨 (已飞行1313 天)
发射日期:
2022-05-18 UTC
国别 :
美国 (US)
星等 :
--
轨道信息
数据来源 国际轨道数据
星历时间: 2025-12-21T01:09:06+0800
12小时前
查看轨道信息
半长轴: 6917.841km
偏心率: 0.0001478
轨道倾角: 53.216°
近地点辐角 86.496°
升交点赤经 148.657°
平近点角 273.620°
近地点: 538.681km
远地点: 540.727km
周期: 95.437分钟
每日圈数: 15.08853
详细信息
固有亮度:
5
最大亮度:
2.5
卫星平台:
Starlink v1.5
覆盖范围:
全球
运营商:
太空探索技术公司
运营商所在国:
美国
制造商(研发单位):
太空探索技术公司
制造商所在国:
美国
使用方式:
暂无
卫星简介
星链(Starlink)计划是由太空探索技术公司(SpaceX)提出的一个巨型低轨卫星互联网星座项目,计划在2019年至2024年间在太空搭建由约1.2万颗卫星组成的“星链”网络,其中1584颗将部署在地球上空550千米处的近地轨道,并从2020年开始工作。该卫星仍在工作。
2D轨道图
3D轨道图
轨道高度分析图
轨道倾角分析图
轨道综合分析图
查看轨道综合分析图